FNG100 EFHK-EFTU

Flight info

Callsign FNG100
Flight time 1h 28m
Altitude 4000
Route HAGIP 595727N0242733E 595149N0242753E 591939N0214955E 592122N0203620E 594216N0200636E JUTKI
Aircraft D228/L-SDFGHILORVY/S

Departure

Time 2026-04-23 10:42
Airport Helsinki Vantaa Airport (EFHK)

Arrival

Time 2026-04-23 12:10
Airport Turku Airport (EFTU)
Time Latitude Longitude Altitude Speed Heading
2026-04-23 10:30 60.31301 24.98894 150 ft 0 kts 244°
2026-04-23 10:35 60.31285 24.98877 150 ft 7 kts 201°
2026-04-23 10:36 60.31222 24.98825 149 ft 12 kts 164°
2026-04-23 10:36 60.31137 24.98894 148 ft 9 kts 192°
2026-04-23 10:36 60.31092 24.98769 148 ft 15 kts 243°
2026-04-23 10:36 60.31051 24.98606 150 ft 10 kts 242°
2026-04-23 10:37 60.31007 24.98446 151 ft 17 kts 243°
2026-04-23 10:37 60.30980 24.98222 157 ft 13 kts 306°
2026-04-23 10:37 60.31065 24.98132 158 ft 17 kts 334°
2026-04-23 10:37 60.31185 24.98009 158 ft 21 kts 333°
2026-04-23 10:38 60.31331 24.97859 158 ft 26 kts 335°
2026-04-23 10:38 60.31497 24.97679 158 ft 28 kts 332°
2026-04-23 10:38 60.31675 24.97503 158 ft 30 kts 332°
2026-04-23 10:38 60.31859 24.97311 158 ft 30 kts 332°
2026-04-23 10:39 60.31995 24.97174 159 ft 20 kts 335°
2026-04-23 10:39 60.32134 24.97026 159 ft 25 kts 332°
2026-04-23 10:39 60.32259 24.96895 160 ft 16 kts 331°
2026-04-23 10:39 60.32306 24.96821 162 ft 1 kts 287°
2026-04-23 10:40 60.32307 24.96816 162 ft 0 kts 285°
2026-04-23 10:40 60.32259 24.96690 163 ft 23 kts 228°
2026-04-23 10:40 60.32127 24.96397 164 ft 33 kts 229°
2026-04-23 10:40 60.31978 24.96078 166 ft 19 kts 233°
2026-04-23 10:41 60.31992 24.95905 168 ft 13 kts 322°
2026-04-23 10:41 60.32074 24.95763 171 ft 16 kts 329°
2026-04-23 10:41 60.32177 24.95927 172 ft 50 kts 48°
2026-04-23 10:41 60.32550 24.96786 322 ft 98 kts 40°
2026-04-23 10:42 60.33028 24.97883 795 ft 108 kts 40°
2026-04-23 10:42 60.33449 24.99189 1388 ft 123 kts 72°
2026-04-23 10:42 60.33123 25.01001 1797 ft 161 kts 129°
2026-04-23 10:42 60.32104 25.02250 1927 ft 188 kts 155°
2026-04-23 10:43 60.30782 25.02563 1924 ft 199 kts 195°
2026-04-23 10:43 60.29548 25.01354 1922 ft 198 kts 219°
2026-04-23 10:43 60.28421 24.99735 1921 ft 200 kts 219°
2026-04-23 10:43 60.27263 24.98173 1923 ft 201 kts 217°
2026-04-23 10:44 60.26082 24.96669 1921 ft 201 kts 216°
2026-04-23 10:44 60.24903 24.95162 1921 ft 200 kts 217°
2026-04-23 10:44 60.23723 24.93653 1918 ft 202 kts 217°
2026-04-23 10:44 60.22532 24.92137 1914 ft 203 kts 217°
2026-04-23 10:45 60.21349 24.90621 1915 ft 201 kts 216°
2026-04-23 10:45 60.20243 24.88942 1916 ft 198 kts 227°
2026-04-23 10:45 60.19218 24.87075 1919 ft 200 kts 226°
2026-04-23 10:45 60.18180 24.85236 1904 ft 200 kts 226°
2026-04-23 10:46 60.17135 24.83403 1910 ft 198 kts 226°
2026-04-23 10:46 60.16101 24.81574 1912 ft 198 kts 226°
2026-04-23 10:46 60.15074 24.79757 1912 ft 196 kts 226°
2026-04-23 10:46 60.14050 24.77950 1910 ft 196 kts 226°
2026-04-23 10:47 60.13038 24.76167 1914 ft 197 kts 226°
2026-04-23 10:47 60.12007 24.74351 1916 ft 197 kts 226°
2026-04-23 10:47 60.10979 24.72540 1915 ft 196 kts 226°
2026-04-23 10:47 60.09957 24.70744 1913 ft 195 kts 226°
2026-04-23 10:48 60.08936 24.68949 1914 ft 196 kts 226°
2026-04-23 10:48 60.07902 24.67135 1900 ft 198 kts 226°
2026-04-23 10:48 60.06874 24.65342 1923 ft 196 kts 226°
2026-04-23 10:48 60.05850 24.63534 1931 ft 196 kts 226°
2026-04-23 10:49 60.04818 24.61728 1934 ft 198 kts 226°
2026-04-23 10:49 60.03778 24.59914 1927 ft 199 kts 226°
2026-04-23 10:49 60.02740 24.58097 1930 ft 198 kts 226°
2026-04-23 10:49 60.01705 24.56292 1931 ft 197 kts 226°
2026-04-23 10:50 60.00684 24.54507 1933 ft 198 kts 226°
2026-04-23 10:50 59.99650 24.52703 1934 ft 197 kts 226°
2026-04-23 10:50 59.98618 24.50908 1934 ft 197 kts 227°
2026-04-23 10:50 59.97581 24.49102 1935 ft 198 kts 227°
2026-04-23 10:51 59.96530 24.47338 1962 ft 196 kts 219°
2026-04-23 10:51 59.95298 24.46241 2216 ft 194 kts 198°
2026-04-23 10:51 59.94867 24.46071 2297 ft 195 kts 190°
2026-04-23 10:51 59.93276 24.46080 2588 ft 193 kts 180°
2026-04-23 10:52 59.91947 24.46148 2849 ft 194 kts 180°
2026-04-23 10:52 59.90600 24.46222 3108 ft 194 kts 180°
2026-04-23 10:52 59.89249 24.46301 3383 ft 195 kts 179°
2026-04-23 10:52 59.87906 24.46161 3639 ft 193 kts 197°
2026-04-23 10:53 59.86704 24.45054 3888 ft 190 kts 221°
2026-04-23 10:53 59.85794 24.43147 3928 ft 192 kts 244°
2026-04-23 10:53 59.85263 24.40741 3923 ft 190 kts 257°
2026-04-23 10:53 59.84796 24.38271 3944 ft 192 kts 257°
2026-04-23 10:54 59.84320 24.35783 3957 ft 193 kts 257°
2026-04-23 10:54 59.83840 24.33285 3947 ft 194 kts 257°
2026-04-23 10:54 59.83358 24.30777 3949 ft 194 kts 256°
2026-04-23 10:54 59.82878 24.28278 3950 ft 194 kts 257°
2026-04-23 10:55 59.82404 24.25815 3952 ft 193 kts 257°
2026-04-23 10:55 59.81923 24.23320 3952 ft 193 kts 257°
2026-04-23 10:55 59.81442 24.20822 3943 ft 193 kts 257°
2026-04-23 10:55 59.80960 24.18328 3962 ft 193 kts 256°
2026-04-23 10:56 59.80478 24.15839 3951 ft 193 kts 257°
2026-04-23 10:56 59.79996 24.13348 3956 ft 193 kts 257°
2026-04-23 10:56 59.79513 24.10854 3951 ft 194 kts 256°
2026-04-23 10:56 59.79029 24.08357 3957 ft 194 kts 256°
2026-04-23 10:57 59.78543 24.05863 3956 ft 193 kts 256°
2026-04-23 10:57 59.78066 24.03411 3964 ft 193 kts 256°
2026-04-23 10:57 59.77577 24.00899 3970 ft 193 kts 256°
2026-04-23 10:57 59.77093 23.98417 3964 ft 193 kts 256°
2026-04-23 10:58 59.76614 23.95965 3959 ft 193 kts 256°
2026-04-23 10:58 59.76127 23.93477 3955 ft 193 kts 256°
2026-04-23 10:58 59.75642 23.91001 3954 ft 193 kts 256°
2026-04-23 10:58 59.75156 23.88521 3957 ft 193 kts 256°
2026-04-23 10:59 59.74669 23.86038 3964 ft 193 kts 256°
2026-04-23 10:59 59.74179 23.83547 3957 ft 194 kts 257°
2026-04-23 10:59 59.73686 23.81041 3963 ft 195 kts 257°
2026-04-23 10:59 59.73193 23.78537 3961 ft 195 kts 257°
2026-04-23 11:00 59.72697 23.76028 3958 ft 195 kts 256°
2026-04-23 11:00 59.72203 23.73527 3958 ft 195 kts 257°
2026-04-23 11:00 59.71714 23.71054 3958 ft 195 kts 257°
2026-04-23 11:00 59.71216 23.68540 3966 ft 196 kts 257°
2026-04-23 11:01 59.70720 23.66036 3963 ft 195 kts 256°
2026-04-23 11:01 59.70222 23.63527 3965 ft 195 kts 256°
2026-04-23 11:01 59.69724 23.61029 3960 ft 195 kts 257°
2026-04-23 11:01 59.69228 23.58531 3968 ft 195 kts 257°
2026-04-23 11:02 59.68730 23.56030 3960 ft 195 kts 257°
2026-04-23 11:02 59.68229 23.53521 3962 ft 196 kts 256°
2026-04-23 11:02 59.67727 23.51013 3941 ft 195 kts 259°
2026-04-23 11:02 59.67231 23.48527 3959 ft 194 kts 257°
2026-04-23 11:03 59.66733 23.46040 3960 ft 195 kts 258°
2026-04-23 11:03 59.66232 23.43540 3962 ft 196 kts 258°
2026-04-23 11:03 59.65729 23.41041 3962 ft 196 kts 258°
2026-04-23 11:03 59.65225 23.38534 3962 ft 196 kts 257°
2026-04-23 11:04 59.64722 23.36036 3958 ft 195 kts 257°
2026-04-23 11:04 59.64226 23.33576 3961 ft 195 kts 257°
2026-04-23 11:04 59.63717 23.31050 3974 ft 195 kts 257°
2026-04-23 11:04 59.63218 23.28584 3972 ft 196 kts 257°
2026-04-23 11:05 59.62713 23.26085 3967 ft 196 kts 257°
2026-04-23 11:05 59.62207 23.23585 3965 ft 196 kts 257°
2026-04-23 11:05 59.61700 23.21086 3979 ft 196 kts 257°
2026-04-23 11:05 59.61193 23.18590 3977 ft 196 kts 257°
2026-04-23 11:06 59.60176 23.13593 3977 ft 196 kts 257°
2026-04-23 11:06 59.59668 23.11101 3980 ft 196 kts 257°
2026-04-23 11:06 59.59160 23.08606 3977 ft 196 kts 257°
2026-04-23 11:07 59.58650 23.06111 3972 ft 196 kts 257°
2026-04-23 11:07 59.58138 23.03611 3976 ft 196 kts 257°
2026-04-23 11:07 59.57626 23.01111 3977 ft 197 kts 257°
2026-04-23 11:07 59.57113 22.98609 3975 ft 196 kts 257°
2026-04-23 11:08 59.56608 22.96150 3983 ft 196 kts 257°
2026-04-23 11:08 59.56096 22.93658 3983 ft 196 kts 257°
2026-04-23 11:08 59.55583 22.91164 3987 ft 196 kts 257°
2026-04-23 11:08 59.55069 22.88673 3989 ft 196 kts 257°
2026-04-23 11:09 59.54555 22.86177 3990 ft 197 kts 257°
2026-04-23 11:09 59.54040 22.83685 3987 ft 196 kts 257°
2026-04-23 11:09 59.53525 22.81194 3988 ft 196 kts 257°
2026-04-23 11:09 59.53008 22.78700 3985 ft 196 kts 257°
2026-04-23 11:10 59.52492 22.76214 3985 ft 196 kts 257°
2026-04-23 11:10 59.51975 22.73719 3990 ft 197 kts 257°
2026-04-23 11:10 59.51457 22.71226 3992 ft 197 kts 257°
2026-04-23 11:10 59.50937 22.68731 3989 ft 197 kts 257°
2026-04-23 11:11 59.50418 22.66242 3992 ft 196 kts 257°
2026-04-23 11:11 59.49901 22.63759 3991 ft 196 kts 257°
2026-04-23 11:11 59.49558 22.62120 3992 ft 194 kts 256°
2026-04-23 11:11 59.48876 22.58863 4004 ft 192 kts 256°
2026-04-23 11:12 59.48369 22.56435 4005 ft 192 kts 256°
2026-04-23 11:12 59.48032 22.54827 4004 ft 192 kts 256°
2026-04-23 11:12 59.47524 22.52405 4005 ft 192 kts 256°
2026-04-23 11:12 59.46849 22.49190 4007 ft 192 kts 256°
2026-04-23 11:13 59.46504 22.47549 4008 ft 192 kts 256°
2026-04-23 11:13 59.45992 22.45117 4007 ft 193 kts 256°
2026-04-23 11:13 59.45480 22.42690 4004 ft 192 kts 256°
2026-04-23 11:13 59.44969 22.40268 4004 ft 192 kts 256°
2026-04-23 11:14 59.44456 22.37842 4007 ft 192 kts 256°
2026-04-23 11:14 59.43943 22.35414 4005 ft 192 kts 256°
2026-04-23 11:14 59.43429 22.32985 4005 ft 193 kts 256°
2026-04-23 11:14 59.42913 22.30552 4005 ft 193 kts 256°
2026-04-23 11:15 59.42403 22.28150 4003 ft 192 kts 256°
2026-04-23 11:15 59.41891 22.25748 4018 ft 190 kts 256°
2026-04-23 11:15 59.41382 22.23353 4018 ft 190 kts 256°
2026-04-23 11:15 59.40873 22.20959 4017 ft 190 kts 256°
2026-04-23 11:16 59.40364 22.18572 4017 ft 190 kts 256°
2026-04-23 11:16 59.39853 22.16183 4016 ft 189 kts 256°
2026-04-23 11:16 59.39344 22.13801 4017 ft 189 kts 256°
2026-04-23 11:16 59.38833 22.11412 4017 ft 189 kts 256°
2026-04-23 11:17 59.38324 22.09031 4015 ft 189 kts 256°
2026-04-23 11:17 59.37812 22.06647 4015 ft 190 kts 256°
2026-04-23 11:17 59.37300 22.04263 4015 ft 190 kts 256°
2026-04-23 11:17 59.36788 22.01881 4017 ft 190 kts 256°
2026-04-23 11:18 59.36275 21.99496 4016 ft 190 kts 256°
2026-04-23 11:18 59.35761 21.97116 4024 ft 189 kts 256°
2026-04-23 11:18 59.35248 21.94738 4023 ft 189 kts 256°
2026-04-23 11:18 59.34743 21.92394 4030 ft 190 kts 256°
2026-04-23 11:19 59.34228 21.90014 4034 ft 190 kts 256°
2026-04-23 11:19 59.33713 21.87633 4034 ft 190 kts 256°
2026-04-23 11:19 59.33197 21.85255 4035 ft 189 kts 256°
2026-04-23 11:19 59.32831 21.82841 4028 ft 181 kts 271°
2026-04-23 11:20 59.32825 21.80426 4029 ft 176 kts 282°
2026-04-23 11:20 59.32897 21.78030 4029 ft 177 kts 281°
2026-04-23 11:20 59.32960 21.75639 4033 ft 175 kts 280°
2026-04-23 11:20 59.33025 21.73257 4033 ft 175 kts 281°
2026-04-23 11:21 59.33090 21.70873 4033 ft 176 kts 281°
2026-04-23 11:21 59.33154 21.68487 4033 ft 176 kts 281°
2026-04-23 11:21 59.33218 21.66097 4034 ft 176 kts 281°
2026-04-23 11:21 59.33282 21.63710 4034 ft 176 kts 281°
2026-04-23 11:22 59.33345 21.61323 4036 ft 175 kts 281°
2026-04-23 11:22 59.33408 21.58936 4036 ft 175 kts 281°
2026-04-23 11:22 59.33470 21.56551 4036 ft 175 kts 281°
2026-04-23 11:22 59.33531 21.54165 4036 ft 175 kts 280°
2026-04-23 11:23 59.33593 21.51782 4035 ft 176 kts 280°
2026-04-23 11:23 59.33654 21.49395 4036 ft 175 kts 280°
2026-04-23 11:23 59.33714 21.47012 4036 ft 175 kts 280°
2026-04-23 11:23 59.33774 21.44625 4035 ft 175 kts 280°
2026-04-23 11:24 59.33833 21.42278 4039 ft 175 kts 280°
2026-04-23 11:24 59.33892 21.39900 4039 ft 175 kts 280°
2026-04-23 11:24 59.33951 21.37509 4044 ft 175 kts 280°
2026-04-23 11:24 59.34009 21.35122 4045 ft 175 kts 280°
2026-04-23 11:25 59.34067 21.32736 4045 ft 175 kts 280°
2026-04-23 11:25 59.34124 21.30348 4045 ft 176 kts 280°
2026-04-23 11:25 59.34181 21.27959 4046 ft 175 kts 280°
2026-04-23 11:25 59.34238 21.25574 4046 ft 175 kts 280°
2026-04-23 11:26 59.34294 21.23183 4048 ft 176 kts 280°
2026-04-23 11:26 59.34350 21.20792 4049 ft 176 kts 280°
2026-04-23 11:26 59.34405 21.18393 4048 ft 176 kts 280°
2026-04-23 11:26 59.34461 21.15998 4049 ft 176 kts 280°
2026-04-23 11:27 59.34515 21.13610 4047 ft 176 kts 280°
2026-04-23 11:27 59.34569 21.11220 4047 ft 176 kts 280°
2026-04-23 11:27 59.34623 21.08826 4043 ft 175 kts 279°
2026-04-23 11:27 59.34675 21.06466 4046 ft 176 kts 279°
2026-04-23 11:28 59.34728 21.04065 4049 ft 176 kts 279°
2026-04-23 11:28 59.34780 21.01664 4048 ft 176 kts 279°
2026-04-23 11:28 59.34832 20.99265 4048 ft 176 kts 279°
2026-04-23 11:28 59.34884 20.96872 4047 ft 175 kts 279°
2026-04-23 11:29 59.34934 20.94497 4047 ft 174 kts 279°
2026-04-23 11:29 59.34984 20.92125 4047 ft 174 kts 279°
2026-04-23 11:29 59.35034 20.89746 4047 ft 174 kts 279°
2026-04-23 11:29 59.35083 20.87375 4046 ft 174 kts 279°
2026-04-23 11:30 59.35132 20.85005 4045 ft 174 kts 279°
2026-04-23 11:30 59.35181 20.82636 4046 ft 174 kts 279°
2026-04-23 11:30 59.35228 20.80269 4047 ft 174 kts 279°
2026-04-23 11:30 59.35276 20.77900 4046 ft 174 kts 279°
2026-04-23 11:31 59.35323 20.75526 4047 ft 174 kts 279°
2026-04-23 11:31 59.35370 20.73153 4049 ft 174 kts 279°
2026-04-23 11:31 59.35416 20.70778 4048 ft 174 kts 279°
2026-04-23 11:31 59.35462 20.68406 4048 ft 174 kts 279°
2026-04-23 11:32 59.35507 20.66032 4051 ft 174 kts 279°
2026-04-23 11:32 59.35571 20.63667 4049 ft 172 kts 284°
2026-04-23 11:32 59.35908 20.61465 4049 ft 167 kts 299°
2026-04-23 11:32 59.36525 20.59566 4049 ft 164 kts 313°
2026-04-23 11:33 59.37370 20.58079 4049 ft 163 kts 326°
2026-04-23 11:33 59.38297 20.56794 4057 ft 163 kts 325°
2026-04-23 11:33 59.39219 20.55490 4058 ft 164 kts 325°
2026-04-23 11:33 59.40143 20.54186 4059 ft 164 kts 325°
2026-04-23 11:34 59.41066 20.52883 4061 ft 164 kts 325°
2026-04-23 11:34 59.41991 20.51578 4061 ft 164 kts 325°
2026-04-23 11:34 59.42915 20.50273 4071 ft 164 kts 326°
2026-04-23 11:34 59.43844 20.48962 4071 ft 165 kts 326°
2026-04-23 11:35 59.44776 20.47645 4053 ft 165 kts 325°
2026-04-23 11:35 59.45709 20.46326 4053 ft 165 kts 325°
2026-04-23 11:35 59.46629 20.45022 4054 ft 165 kts 326°
2026-04-23 11:35 59.47563 20.43700 4054 ft 165 kts 326°
2026-04-23 11:36 59.48495 20.42377 4058 ft 165 kts 326°
2026-04-23 11:36 59.49428 20.41054 4058 ft 165 kts 325°
2026-04-23 11:36 59.50362 20.39730 4061 ft 165 kts 325°
2026-04-23 11:36 59.51296 20.38403 4058 ft 165 kts 326°
2026-04-23 11:37 59.52228 20.37077 4059 ft 165 kts 326°
2026-04-23 11:37 59.53162 20.35749 4058 ft 165 kts 326°
2026-04-23 11:37 59.54094 20.34422 4057 ft 165 kts 325°
2026-04-23 11:37 59.55025 20.33096 4057 ft 165 kts 325°
2026-04-23 11:38 59.55957 20.31767 4061 ft 165 kts 326°
2026-04-23 11:38 59.56890 20.30436 4059 ft 165 kts 326°
2026-04-23 11:38 59.57821 20.29107 4059 ft 165 kts 326°
2026-04-23 11:38 59.58753 20.27775 4061 ft 165 kts 325°
2026-04-23 11:39 59.59685 20.26444 4057 ft 165 kts 325°
2026-04-23 11:39 59.60604 20.25130 4057 ft 165 kts 326°
2026-04-23 11:39 59.61533 20.23799 4057 ft 165 kts 326°
2026-04-23 11:39 59.62463 20.22466 4060 ft 165 kts 325°
2026-04-23 11:40 59.63392 20.21135 4063 ft 165 kts 325°
2026-04-23 11:40 59.64322 20.19801 4061 ft 165 kts 325°
2026-04-23 11:40 59.65255 20.18463 4063 ft 165 kts 325°
2026-04-23 11:40 59.66185 20.17127 4063 ft 165 kts 325°
2026-04-23 11:41 59.67115 20.15791 4059 ft 165 kts 326°
2026-04-23 11:41 59.68132 20.14779 4055 ft 164 kts 340°
2026-04-23 11:41 59.69258 20.14359 4058 ft 166 kts 354°
2026-04-23 11:41 59.70418 20.14573 4057 ft 169 kts
2026-04-23 11:42 59.71508 20.15422 4054 ft 173 kts 23°
2026-04-23 11:42 59.72469 20.16912 4051 ft 180 kts 39°
2026-04-23 11:42 59.73224 20.18924 4054 ft 183 kts 48°
2026-04-23 11:42 59.73947 20.20994 4056 ft 183 kts 47°
2026-04-23 11:43 59.74675 20.23063 4059 ft 183 kts 47°
2026-04-23 11:43 59.75401 20.25137 4058 ft 183 kts 48°
2026-04-23 11:43 59.76125 20.27210 4058 ft 183 kts 48°
2026-04-23 11:43 59.76851 20.29286 4064 ft 183 kts 48°
2026-04-23 11:44 59.77574 20.31357 4066 ft 182 kts 48°
2026-04-23 11:44 59.78297 20.33432 4066 ft 183 kts 48°
2026-04-23 11:44 59.79021 20.35512 4066 ft 183 kts 48°
2026-04-23 11:44 59.79743 20.37586 4065 ft 182 kts 48°
2026-04-23 11:45 59.80463 20.39655 4058 ft 182 kts 48°
2026-04-23 11:45 59.81175 20.41704 4058 ft 182 kts 48°
2026-04-23 11:45 59.81893 20.43772 4058 ft 182 kts 48°
2026-04-23 11:45 59.82611 20.45843 4059 ft 182 kts 48°
2026-04-23 11:46 59.83330 20.47917 4060 ft 182 kts 48°
2026-04-23 11:46 59.84048 20.49990 4058 ft 182 kts 48°
2026-04-23 11:46 59.84763 20.52058 4059 ft 182 kts 48°
2026-04-23 11:46 59.85480 20.54132 4056 ft 182 kts 49°
2026-04-23 11:47 59.86197 20.56208 4060 ft 182 kts 48°
2026-04-23 11:47 59.86914 20.58287 4059 ft 182 kts 49°
2026-04-23 11:47 59.87631 20.60369 4061 ft 182 kts 48°
2026-04-23 11:47 59.88346 20.62445 4059 ft 181 kts 48°
2026-04-23 11:48 59.89059 20.64517 4059 ft 182 kts 48°
2026-04-23 11:48 59.89775 20.66598 4059 ft 183 kts 48°
2026-04-23 11:48 59.90493 20.68690 4059 ft 183 kts 49°
2026-04-23 11:48 59.91208 20.70774 4058 ft 182 kts 49°
2026-04-23 11:49 59.91922 20.72854 4058 ft 182 kts 49°
2026-04-23 11:49 59.92634 20.74934 4057 ft 182 kts 48°
2026-04-23 11:49 59.93349 20.77024 4060 ft 183 kts 49°
2026-04-23 11:49 59.94065 20.79118 4051 ft 183 kts 49°
2026-04-23 11:50 59.94781 20.81213 4051 ft 182 kts 49°
2026-04-23 11:50 59.95495 20.83307 4051 ft 182 kts 49°
2026-04-23 11:50 59.96201 20.85375 4050 ft 183 kts 49°
2026-04-23 11:50 59.96916 20.87474 4051 ft 183 kts 49°
2026-04-23 11:51 59.97630 20.89567 4048 ft 182 kts 49°
2026-04-23 11:51 59.98341 20.91657 4046 ft 182 kts 48°
2026-04-23 11:51 59.99051 20.93745 4049 ft 182 kts 49°
2026-04-23 11:51 59.99759 20.95839 4050 ft 182 kts 48°
2026-04-23 11:52 60.00468 20.97928 4069 ft 182 kts 48°
2026-04-23 11:52 60.01181 21.00031 4046 ft 183 kts 48°
2026-04-23 11:52 60.01894 21.02137 4064 ft 182 kts 48°
2026-04-23 11:52 60.02606 21.04241 4067 ft 183 kts 48°
2026-04-23 11:53 60.03319 21.06350 4065 ft 183 kts 48°
2026-04-23 11:53 60.04031 21.08460 4067 ft 183 kts 48°
2026-04-23 11:53 60.04745 21.10573 4067 ft 184 kts 48°
2026-04-23 11:53 60.05459 21.12691 4066 ft 183 kts 48°
2026-04-23 11:54 60.06172 21.14811 4068 ft 183 kts 48°
2026-04-23 11:54 60.06886 21.16933 4067 ft 183 kts 48°
2026-04-23 11:54 60.07598 21.19053 4064 ft 184 kts 48°
2026-04-23 11:54 60.08311 21.21174 4063 ft 183 kts 48°
2026-04-23 11:55 60.09014 21.23269 4067 ft 183 kts 48°
2026-04-23 11:55 60.09724 21.25388 4065 ft 183 kts 48°
2026-04-23 11:55 60.10434 21.27509 4067 ft 184 kts 49°
2026-04-23 11:55 60.11146 21.29635 4064 ft 183 kts 49°
2026-04-23 11:56 60.11854 21.31753 4065 ft 183 kts 49°
2026-04-23 11:56 60.12561 21.33871 4065 ft 182 kts 49°
2026-04-23 11:56 60.13267 21.35988 4065 ft 183 kts 48°
2026-04-23 11:56 60.13976 21.38111 4064 ft 183 kts 49°
2026-04-23 11:57 60.14684 21.40237 4064 ft 183 kts 48°
2026-04-23 11:57 60.15390 21.42358 4063 ft 183 kts 49°
2026-04-23 11:57 60.16087 21.44468 3936 ft 187 kts 49°
2026-04-23 11:57 60.16826 21.46670 3683 ft 192 kts 49°
2026-04-23 11:58 60.17569 21.48911 3434 ft 193 kts 49°
2026-04-23 11:58 60.18310 21.51164 3171 ft 194 kts 49°
2026-04-23 11:58 60.19058 21.53411 2907 ft 193 kts 49°
2026-04-23 11:58 60.19799 21.55651 2646 ft 193 kts 49°
2026-04-23 11:59 60.20542 21.57898 2382 ft 193 kts 50°
2026-04-23 11:59 60.21035 21.59388 2201 ft 193 kts 50°
2026-04-23 11:59 60.21779 21.61643 1938 ft 194 kts 50°
2026-04-23 11:59 60.22526 21.63908 1762 ft 191 kts 51°
2026-04-23 12:00 60.23254 21.66125 1765 ft 188 kts 50°
2026-04-23 12:00 60.23972 21.68308 1762 ft 186 kts 50°
2026-04-23 12:00 60.24682 21.70461 1754 ft 186 kts 50°
2026-04-23 12:00 60.25398 21.72639 1757 ft 187 kts 50°
2026-04-23 12:01 60.26116 21.74811 1749 ft 186 kts 50°
2026-04-23 12:01 60.26827 21.76994 1747 ft 186 kts 50°
2026-04-23 12:01 60.27537 21.79174 1755 ft 186 kts 51°
2026-04-23 12:01 60.28255 21.81331 1741 ft 185 kts 49°
2026-04-23 12:02 60.28960 21.83512 1749 ft 185 kts 51°
2026-04-23 12:02 60.29674 21.85695 1758 ft 186 kts 51°
2026-04-23 12:02 60.30383 21.87874 1749 ft 185 kts 50°
2026-04-23 12:02 60.31087 21.90049 1751 ft 185 kts 50°
2026-04-23 12:03 60.31789 21.92180 1756 ft 185 kts 50°
2026-04-23 12:03 60.32499 21.94363 1752 ft 187 kts 51°
2026-04-23 12:03 60.33214 21.96562 1719 ft 189 kts 51°
2026-04-23 12:03 60.33938 21.98789 1637 ft 189 kts 51°
2026-04-23 12:04 60.34655 22.01009 1554 ft 189 kts 51°
2026-04-23 12:04 60.35379 22.03230 1478 ft 190 kts 50°
2026-04-23 12:04 60.36105 22.05471 1398 ft 191 kts 51°
2026-04-23 12:04 60.36827 22.07710 1318 ft 190 kts 52°
2026-04-23 12:05 60.37535 22.09912 1241 ft 190 kts 52°
2026-04-23 12:05 60.38241 22.12144 1250 ft 187 kts 52°
2026-04-23 12:05 60.38964 22.14329 1233 ft 185 kts 44°
2026-04-23 12:05 60.39882 22.16092 1237 ft 181 kts 37°
2026-04-23 12:06 60.40814 22.17753 1237 ft 182 kts 36°
2026-04-23 12:06 60.41765 22.19455 1234 ft 183 kts 36°
2026-04-23 12:06 60.43645 22.22874 1223 ft 174 kts 37°
2026-04-23 12:07 60.44498 22.24447 1119 ft 163 kts 37°
2026-04-23 12:07 60.45316 22.26041 1045 ft 164 kts 39°
2026-04-23 12:07 60.46108 22.27664 1031 ft 161 kts 39°
2026-04-23 12:07 60.46916 22.29220 1014 ft 158 kts 34°
2026-04-23 12:08 60.47723 22.30331 992 ft 126 kts 18°
2026-04-23 12:08 60.48515 22.30839 936 ft 113 kts
2026-04-23 12:08 60.49247 22.31095 877 ft 100 kts
2026-04-23 12:08 60.49902 22.31285 783 ft 90 kts 356°
2026-04-23 12:09 60.50525 22.31299 724 ft 89 kts 348°
2026-04-23 12:09 60.51110 22.31123 577 ft 79 kts 334°
2026-04-23 12:09 60.51488 22.30347 400 ft 78 kts 295°
2026-04-23 12:09 60.51534 22.29262 260 ft 81 kts 271°
2026-04-23 12:10 60.51490 22.28086 156 ft 78 kts 271°
2026-04-23 12:10 60.51457 22.27313 163 ft 25 kts 266°
2026-04-23 12:10 60.51436 22.27065 166 ft 13 kts 229°
2026-04-23 12:10 60.51349 22.27058 168 ft 17 kts 154°
2026-04-23 12:11 60.51330 22.27219 168 ft 15 kts 84°
2026-04-23 12:11 60.51343 22.27492 163 ft 23 kts 85°
2026-04-23 12:11 60.51358 22.27837 159 ft 26 kts 84°
2026-04-23 12:11 60.51373 22.28206 150 ft 20 kts 85°
2026-04-23 12:12 60.51386 22.28481 146 ft 13 kts 86°
2026-04-23 12:12 60.51345 22.28570 146 ft 10 kts 163°
2026-04-23 12:12 60.51295 22.28679 151 ft 9 kts 108°
2026-04-23 12:12 60.51315 22.28779 151 ft 5 kts 351°
2026-04-23 12:13 60.51322 22.28776 151 ft 0 kts 349°